DW5775 Weather Reports


Display with metric or nautical units.
time (UTC)temp
F
wind
direction
speed
MPH
gust
MPH
rain 1hr
in
rain 24hr
in
rain mn
in
humidity
%
barometer
mb
20240625090025 62 257 0.0 0.0 0.00 0.00 0.00 96 1009.0
20240625084505 62 257 0.0 0.0 0.00 0.00 0.00 96 1009.5
20240625083006 62 257 0.0 0.0 0.00 0.00 0.00 95 1009.4
20240625081520 62 257 0.0 0.0 0.00 0.00 0.00 96 1009.6
20240625080004 62 257 0.0 0.0 0.00 0.00 0.00 96 1008.8
20240625074503 62 257 0.0 0.0 0.00 0.00 0.00 95 1008.5
20240625073001 62 257 0.0 0.0 0.00 0.00 0.00 95 1008.6
20240625071558 62 257 0.0 0.0 0.00 0.00 0.00 94 1009.0
20240625070055 62 257 0.0 0.0 0.00 0.00 0.00 93 1009.7
20240625064553 62 257 0.0 0.0 0.00 0.00 0.00 93 1010.3
20240625063049 63 257 0.0 0.0 0.00 0.00 0.00 92 1010.6
20240625061548 63 257 0.0 0.0 0.00 0.00 0.00 92 1010.8
20240625060044 63 257 0.0 0.0 0.00 0.00 0.00 92 1011.3
20240625054541 63 257 0.0 0.0 0.00 0.00 0.00 91 1011.9
20240625053039 63 257 0.0 0.0 0.00 0.00 0.00 90 1012.0
20240625051550 63 257 0.0 0.0 0.00 0.00 0.00 90 1012.0
20240625050038 63 257 0.0 0.0 0.00 0.00 0.00 89 1012.0
20240625044537 63 257 0.0 0.0 0.00 0.00 0.00 88 1011.8
20240625043040 64 257 0.0 0.0 0.00 0.00 0.00 87 1011.8
20240625041536 64 257 0.0 0.0 0.00 0.00 0.00 86 1011.9
20240625040033 64 257 0.0 0.0 0.00 0.00 0.00 84 1012.1
20240625034531 64 257 0.0 0.0 0.00 0.00 0.00 83 1011.9
20240625033029 64 257 0.0 0.0 0.00 0.00 0.00 83 1011.8
20240625031538 65 257 0.0 0.0 0.00 0.00 0.00 82 1011.6
20240625030029 65 257 0.0 0.0 0.00 0.00 0.00 79 1011.4
20240625024538 66 257 0.0 0.0 0.00 0.00 0.00 78 1011.5
20240625023034 66 257 0.0 0.0 0.00 0.00 0.00 77 1011.9
20240625021527 68 257 0.0 0.0 0.00 0.00 0.00 75 1011.8
20240625020027 69 257 0.0 0.0 0.00 0.00 0.00 74 1011.8
20240625014526 70 257 0.0 0.0 0.00 0.00 0.00 72 1011.8
20240625013027 71 257 0.0 0.0 0.00 0.00 0.00 70 1011.7
20240625011530 72 257 0.0 2.0 0.00 0.00 0.00 68 1011.8
20240625010024 73 267 0.0 0.0 0.00 0.00 0.00 67 1011.8
20240625004524 74 259 0.0 1.0 0.00 0.00 0.00 68 1011.7
20240625003023 75 239 0.0 1.0 0.00 0.00 0.00 66 1011.6
20240625001523 76 256 0.0 3.0 0.00 0.00 0.00 64 1011.8
20240625000022 76 260 0.0 4.0 0.00 0.00 0.00 65 1011.8
20240624234522 76 282 0.0 0.0 0.00 0.07 0.00 67 1011.6
20240624233034 77 264 0.0 2.0 0.00 0.07 0.00 67 1011.7
20240624231521 77 245 0.0 3.0 0.00 0.07 0.00 65 1011.5
20240624230024 77 278 1.0 3.0 0.00 0.07 0.00 66 1011.6
20240624224520 76 257 0.0 2.0 0.00 0.07 0.00 67 1011.8
20240624223019 77 271 0.0 0.0 0.00 0.07 0.00 68 1011.9
20240624221522 77 53 0.0 2.0 0.00 0.07 0.00 67 1012.0
20240624220019 77 226 0.0 2.0 0.00 0.07 0.00 66 1012.1
20240624214520 78 257 0.0 2.0 0.00 0.07 0.00 64 1012.1
20240624213017 78 103 0.0 1.0 0.00 0.07 0.00 64 1012.3
20240624211520 78 226 0.0 1.0 0.00 0.07 0.00 64 1012.5
20240624210019 79 232 0.0 0.0 0.00 0.07 0.00 63 1012.6
20240624204516 80 103 0.0 1.0 0.00 0.07 0.00 58 1012.7
20240624203022 79 245 0.0 1.0 0.00 0.07 0.00 59 1013.2
20240624201515 81 242 0.0 3.0 0.00 0.07 0.00 57 1013.0
20240624200018 79 110 1.0 2.0 0.00 0.07 0.00 57 1012.9
20240624194514 79 90 1.0 3.0 0.00 0.07 0.00 60 1013.0
20240624193018 79 260 0.0 2.0 0.00 0.07 0.00 60 1013.1
20240624191513 80 85 0.0 2.0 0.00 0.07 0.00 56 1013.1
20240624190013 82 108 0.0 3.0 0.00 0.07 0.00 54 1013.0
20240624184510 83 254 0.0 2.0 0.00 0.07 0.00 53 1013.1
20240624183007 81 120 0.0 3.0 0.00 0.07 0.00 58 1013.2
20240624181505 80 248 0.0 2.0 0.00 0.07 0.00 61 1013.4
20240624180005 79 239 0.0 1.0 0.00 0.07 0.00 59 1013.5
20240624174503 78 112 0.0 0.0 0.00 0.07 0.00 62 1013.5
20240624173003 79 112 0.0 3.0 0.00 0.07 0.00 61 1013.5
20240624171501 79 255 0.0 1.0 0.00 0.07 0.00 64 1013.4
20240624170002 78 193 0.0 1.0 0.00 0.07 0.00 62 1013.5
20240624164601 75 82 0.0 1.0 0.00 0.07 0.00 64 1013.4
20240624163059 77 242 0.0 2.0 0.00 0.07 0.00 65 1013.4
20240624161629 79 277 0.0 3.0 0.00 0.07 0.00 59 1013.3
20240624160106 80 68 0.0 1.0 0.00 0.07 0.00 62 1013.3
20240624154554 78 70 0.0 3.0 0.00 0.07 0.00 63 1013.3
20240624153052 78 73 0.0 3.0 0.00 0.07 0.00 66 1013.4
20240624151554 77 30 0.0 3.0 0.00 0.07 0.00 65 1013.5
20240624150050 77 108 0.0 3.0 0.00 0.07 0.00 66 1013.3
20240624144547 76 110 0.0 0.0 0.00 0.07 0.00 73 1013.2
20240624143047 75 249 0.0 2.0 0.00 0.07 0.00 71 1013.2
20240624141547 74 110 0.0 1.0 0.00 0.07 0.00 71 1013.2
20240624140047 75 99 0.0 1.0 0.00 0.07 0.00 71 1013.1
20240624134544 75 225 0.0 1.0 0.00 0.07 0.00 71 1013.0
20240624133046 77 96 0.0 1.0 0.00 0.07 0.00 69 1012.9
20240624131540 75 161 0.0 0.0 0.00 0.07 0.00 71 1012.8
20240624130037 75 131 0.0 0.0 0.00 0.07 0.00 75 1012.5
20240624124541 74 218 0.0 0.0 0.00 0.07 0.00 74 1012.3
20240624123031 72 72 0.0 0.0 0.00 0.07 0.00 81 1012.2
20240624121530 69 72 0.0 0.0 0.00 0.07 0.00 86 1012.0
20240624120021 66 72 0.0 0.0 0.00 0.07 0.00 97 1011.9
20240624114519 63 72 0.0 0.0 0.00 0.07 0.00 98 1011.6
20240624113020 63 65 0.0 0.0 0.00 0.07 0.00 99 1011.3
20240624111526 62 65 0.0 0.0 0.00 0.07 0.00 99 1011.2
20240624110023 62 65 0.0 0.0 0.00 0.07 0.00 99 1011.1
20240624104523 61 65 0.0 0.0 0.00 0.07 0.00 98 1011.0
20240624103012 61 65 0.0 0.0 0.00 0.07 0.00 98 1010.8
20240624101507 61 65 0.0 0.0 0.00 0.07 0.00 98 1010.5
20240624100010 61 65 0.0 0.0 0.00 0.07 0.00 98 1010.3
20240624094504 61 65 0.0 0.0 0.00 0.08 0.00 98 1010.1
20240624093002 61 65 0.0 0.0 0.00 0.08 0.00 97 1009.8
20240624091614 62 65 0.0 0.0 0.00 0.08 0.00 97 1009.6